Saint Francis, KS

7:07 PM CDT on August 29, 2016 (GMT -0500)
Cheyenne County Municipal

Weather History for KSYF - August, 2013

Change the Weather History Date:

Thursday, August 1, 2013

  Actual Average Record
Temperature  
Mean Temperature 82 °F -  
Max Temperature 99 °F 89 °F 99 °F (2013)
Min Temperature 66 °F 61 °F 56 °F (2014)
Cooling Degree Days 18    
Growing Degree Days 32 (Base 50)    
Moisture  
Dew Point 58 °F    
Average Humidity 52    
Maximum Humidity 83    
Minimum Humidity 18    
Precipitation  
Precipitation 0.00 in - - ()
Sea Level Pressure  
Sea Level Pressure 30.05 in    
Wind  
Wind Speed 10 mph (SSE)    
Max Wind Speed 25 mph    
Max Gust Speed 36 mph    
Visibility 10 miles    
Events Rain    
Averages and records for this station are not official NWS values.
T = Trace of Precipitation, MM = Missing Value Source: NWS Daily Summary

Daily Weather History Graph

Daily Weather History Graph

Search for Another Location

Airport or City:

Trip Planner

Search our weather history database for the weather conditions in past years. The results will help you decide how hot, cold, wet, or windy it might be!

Date:

Astronomy

Aug. 01, 2013 Rise Set
Actual Time 6:46 AM CDT 8:59 PM CDT
Civil Twilight 6:16 AM CDT 9:30 PM CDT
Nautical Twilight 5:39 AM CDT 10:06 PM CDT
Astronomical Twilight 4:58 AM CDT 10:47 PM CDT
Moon 2:24 AM CDT (8/1) 5:10 PM CDT (8/1)
Length of Visible Light 15h 13m
Length of Day
14h 13m
Waning Crescent, 23% of the Moon is Illuminated
Aug 1
Waning Crescent
Aug 6
New
Aug 14
First Quarter
Aug 20
Full
Aug 28
Last Quarter

Hourly Weather History & Observations

Time (CDT) Temp. Heat Index Dew Point Humidity Pressure Visibility Wind Dir Wind Speed Gust Speed Precip Events Conditions
12:15 AM 69.4 °F - 62.1 °F 77% 30.19 in 10.0 mi SSE 4.6 mph - N/A   Clear
12:35 AM 69.4 °F - 62.8 °F 79% 30.23 in 10.0 mi SW 8.1 mph - N/A   Clear
12:55 AM 70.3 °F - 62.8 °F 77% 30.26 in 10.0 mi West 6.9 mph - N/A   Scattered Clouds
1:15 AM 70.3 °F - 62.8 °F 77% 30.25 in 10.0 mi WSW 13.8 mph - N/A Rain Light Rain
1:35 AM 70.2 °F - 63.1 °F 78% 30.21 in 10.0 mi SW 9.2 mph 17.3 mph N/A Rain Light Rain
1:55 AM 69.8 °F - 61.9 °F 76% 30.20 in 10.0 mi SW 16.1 mph 20.7 mph N/A   Scattered Clouds
2:15 AM 70.2 °F - 60.6 °F 72% 30.18 in 10.0 mi WSW 9.2 mph 16.1 mph N/A   Clear
2:35 AM 70.2 °F - 59.0 °F 68% 30.17 in 10.0 mi WNW 8.1 mph - N/A   Clear
2:55 AM 70.3 °F - 58.8 °F 67% 30.16 in 10.0 mi West 8.1 mph 16.1 mph N/A   Mostly Cloudy
3:15 AM 70.9 °F - 57.7 °F 63% 30.15 in 10.0 mi SW 8.1 mph - N/A   Scattered Clouds
3:35 AM 71.6 °F - 58.3 °F 63% 30.14 in 10.0 mi WSW 9.2 mph - N/A   Scattered Clouds
3:55 AM 72.3 °F - 57.4 °F 59% 30.14 in 10.0 mi West 9.2 mph - N/A   Clear
4:15 AM 72.3 °F - 58.1 °F 61% 30.14 in 10.0 mi NNE 6.9 mph - N/A   Clear
4:35 AM 68.9 °F - 59.0 °F 71% 30.15 in 10.0 mi NNW 8.1 mph - N/A   Clear
4:55 AM 68.0 °F - 59.4 °F 74% 30.15 in 10.0 mi NNE 5.8 mph - N/A   Clear
5:15 AM 67.5 °F - 59.9 °F 77% 30.14 in 10.0 mi NE 3.5 mph - N/A   Clear
5:35 AM 67.1 °F - 59.5 °F 77% 30.13 in 10.0 mi ESE 8.1 mph - N/A   Clear
5:55 AM 66.9 °F - 60.1 °F 79% 30.13 in 10.0 mi ESE 4.6 mph - N/A   Clear
6:15 AM 66.2 °F - 60.8 °F 83% 30.12 in 10.0 mi SE 5.8 mph - N/A   Clear
6:35 AM 66.0 °F - 60.8 °F 83% 30.12 in 10.0 mi ESE 4.6 mph - N/A   Clear
6:55 AM 66.0 °F - 60.8 °F 83% 30.13 in 10.0 mi ESE 6.9 mph - N/A   Clear
7:15 AM 66.0 °F - 60.8 °F 83% 30.13 in 10.0 mi East 3.5 mph - N/A   Clear
7:35 AM 66.4 °F - 61.2 °F 83% 30.13 in 10.0 mi ESE 9.2 mph - N/A   Clear
7:55 AM 68.9 °F - 61.5 °F 77% 30.14 in 10.0 mi ESE 5.8 mph - N/A   Clear
8:15 AM 71.1 °F - 61.7 °F 72% 30.14 in 10.0 mi SE 9.2 mph - N/A   Clear
8:35 AM 74.3 °F - 61.5 °F 64% 30.14 in 10.0 mi SE 8.1 mph - N/A   Clear
8:55 AM 76.5 °F - 61.3 °F 59% 30.13 in 10.0 mi SSE 10.4 mph - N/A   Clear
9:15 AM 78.1 °F - 60.1 °F 54% 30.13 in 10.0 mi South 10.4 mph - N/A   Clear
9:35 AM 78.6 °F - 59.7 °F 52% 30.12 in 10.0 mi South 11.5 mph - N/A   Clear
9:55 AM 80.4 °F 81.0 °F 59.0 °F 48% 30.12 in 10.0 mi SSE 12.7 mph 19.6 mph N/A   Clear
10:15 AM 81.5 °F 81.3 °F 56.5 °F 42% 30.10 in 10.0 mi South 15.0 mph 19.6 mph N/A   Clear
10:35 AM 80.8 °F 80.8 °F 56.3 °F 43% 30.10 in 10.0 mi South 13.8 mph 19.6 mph N/A   Clear
10:55 AM 81.5 °F 81.3 °F 56.1 °F 42% 30.10 in 10.0 mi South 9.2 mph - N/A   Clear
11:15 AM 84.0 °F 83.2 °F 56.3 °F 39% 30.10 in 10.0 mi South 11.5 mph - N/A   Clear
11:35 AM 85.1 °F 84.3 °F 57.2 °F 39% 30.10 in 10.0 mi SE 10.4 mph 19.6 mph N/A   Clear
11:55 AM 86.0 °F 85.0 °F 57.9 °F 38% 30.10 in 10.0 mi SSE 6.9 mph - N/A   Clear
12:15 PM 87.1 °F 85.9 °F 57.4 °F 36% 30.10 in 10.0 mi SE 5.8 mph 9.2 mph N/A   Clear
12:35 PM 88.2 °F 86.5 °F 55.9 °F 33% 30.08 in 10.0 mi SSE 9.2 mph - N/A   Clear
12:55 PM 89.4 °F 87.7 °F 55.6 °F 32% 30.08 in 10.0 mi SE 9.2 mph - N/A   Clear
1:15 PM 91.0 °F 88.9 °F 54.5 °F 29% 30.06 in 10.0 mi SE 6.9 mph 18.4 mph N/A   Clear
1:35 PM 91.9 °F 89.8 °F 54.1 °F 28% 30.04 in 10.0 mi SSE 11.5 mph 17.3 mph N/A   Clear
1:55 PM 93.4 °F 91.0 °F 54.1 °F 26% 30.03 in 10.0 mi SSE 11.5 mph 17.3 mph N/A   Clear
2:15 PM 94.6 °F 92.3 °F 53.6 °F 25% 30.03 in 10.0 mi South 11.5 mph 23.0 mph N/A   Clear
2:35 PM 94.5 °F 92.1 °F 53.8 °F 25% 30.02 in 10.0 mi SSE 9.2 mph 21.9 mph N/A   Clear
2:55 PM 93.4 °F 91.3 °F 54.5 °F 27% 30.00 in 10.0 mi SSE 15.0 mph 21.9 mph N/A   Clear
3:15 PM 95.9 °F - 52.7 °F 23% 29.99 in 10.0 mi South 17.3 mph 21.9 mph N/A   Clear
3:35 PM 96.3 °F 94.0 °F 53.6 °F 24% 29.98 in 10.0 mi SSE 8.1 mph 24.2 mph N/A   Clear
3:55 PM 97.9 °F - 52.0 °F 21% 29.96 in 10.0 mi South 17.3 mph 24.2 mph N/A   Clear
4:15 PM 98.1 °F - 51.1 °F 20% 29.95 in 10.0 mi SSE 16.1 mph 27.6 mph N/A   Clear
4:35 PM 98.6 °F - 50.4 °F 20% 29.93 in 10.0 mi SSE 18.4 mph 25.3 mph N/A   Clear
4:55 PM 98.4 °F - 50.5 °F 20% 29.92 in 10.0 mi SSE 19.6 mph 25.3 mph N/A   Scattered Clouds
5:15 PM 99.3 °F - 49.1 °F 18% 29.91 in 10.0 mi SSE 23.0 mph 29.9 mph N/A   Scattered Clouds
5:35 PM 99.1 °F - 49.8 °F 19% 29.90 in 10.0 mi SSE 18.4 mph 27.6 mph N/A   Clear
5:55 PM 97.3 °F - 50.4 °F 20% 29.90 in 10.0 mi SSE 21.9 mph 28.8 mph N/A   Clear
6:15 PM 97.0 °F - 52.2 °F 22% 29.90 in 10.0 mi SSE 17.3 mph 21.9 mph N/A   Clear
6:35 PM 93.0 °F 91.4 °F 56.5 °F 29% 29.89 in 10.0 mi SE 25.3 mph 31.1 mph N/A   Scattered Clouds
6:55 PM 91.8 °F 90.6 °F 58.3 °F 32% 29.88 in 10.0 mi SE 20.7 mph 27.6 mph N/A   Scattered Clouds
7:15 PM 91.9 °F 90.8 °F 58.1 °F 32% 29.88 in 10.0 mi SSE 24.2 mph 29.9 mph N/A   Clear
7:35 PM 88.0 °F 86.7 °F 57.4 °F 35% 29.87 in 10.0 mi SSE 24.2 mph 31.1 mph N/A   Clear
7:55 PM 83.5 °F 83.6 °F 59.9 °F 45% 29.88 in 10.0 mi SSE 24.2 mph 35.7 mph N/A   Clear
8:15 PM 82.0 °F 82.1 °F 59.0 °F 45% 29.89 in 10.0 mi SSE 19.6 mph 25.3 mph N/A   Clear
8:35 PM 83.3 °F 82.3 °F 54.9 °F 38% 29.91 in 10.0 mi SSE 24.2 mph - N/A   Clear
8:55 PM 79.3 °F - 62.2 °F 56% 29.92 in 10.0 mi SSE 16.1 mph 33.4 mph N/A   Clear
9:15 PM 78.1 °F - 60.1 °F 54% 29.90 in 10.0 mi SSE 21.9 mph 33.4 mph N/A   Clear
9:35 PM 76.5 °F - 60.6 °F 58% 29.90 in 10.0 mi SSE 21.9 mph 29.9 mph N/A   Clear
9:55 PM 75.7 °F - 61.9 °F 62% 29.91 in 10.0 mi South 19.6 mph 26.5 mph N/A   Clear
10:15 PM 75.4 °F - 62.4 °F 64% 29.90 in 10.0 mi South 18.4 mph - N/A   Clear
10:35 PM 74.7 °F - 62.6 °F 66% 29.91 in 10.0 mi WNW 11.5 mph 19.6 mph N/A   Clear
10:55 PM 73.8 °F - 62.6 °F 68% 29.92 in 10.0 mi West 9.2 mph - N/A   Clear
11:15 PM 72.5 °F - 62.4 °F 71% 29.92 in 10.0 mi SW 8.1 mph - N/A   Clear
11:35 PM 71.6 °F - 62.2 °F 72% 29.92 in 10.0 mi WSW 8.1 mph - N/A   Clear
11:55 PM 72.9 °F - 61.9 °F 68% 29.92 in 10.0 mi Calm Calm - N/A   Clear